FW1372 Weather Reports


time (UTC)temp
C
wind
direction
speed
KPH
gust
KPH
rain 1hr
cm
rain 24hr
cm
rain mn
cm
humidity
%
barometer
mb
20201001171520 18 343 11.3 22.5 0.00 0.00 0.00 29 1013.9
20201001171007 18 351 16.1 25.7 0.00 0.00 0.00 32 1013.9
20201001170508 18 317 14.5 32.2 0.00 0.00 0.00 32 1013.8
20201001170023 18 333 16.1 32.2 0.00 0.00 0.00 34 1013.9
20201001165508 18 324 16.1 27.4 0.00 0.00 0.00 34 1013.8
20201001165009 18 335 14.5 29.0 0.00 0.00 0.00 34 1013.8
20201001164515 18 339 17.7 29.0 0.00 0.00 0.00 34 1013.8
20201001164008 18 348 17.7 25.7 0.00 0.00 0.00 35 1013.6
20201001163509 18 343 17.7 25.7 0.00 0.00 0.00 34 1013.7
20201001163018 18 334 16.1 25.7 0.00 0.00 0.00 35 1013.8
20201001162509 18 3 14.5 29.0 0.00 0.00 0.00 34 1014.0
20201001162010 18 340 16.1 29.0 0.00 0.00 0.00 35 1013.9
20201001161512 18 345 14.5 24.1 0.00 0.00 0.00 34 1014.1
20201001161006 19 6 12.9 22.5 0.00 0.00 0.00 35 1014.0
20201001160508 19 339 16.1 25.7 0.00 0.00 0.00 35 1013.9
20201001160012 19 357 14.5 25.7 0.00 0.00 0.00 34 1014.0
20201001155506 19 347 12.9 22.5 0.00 0.00 0.00 36 1013.9
20201001155010 19 352 8.0 20.9 0.00 0.00 0.00 36 1013.9
20201001154507 19 348 12.9 20.9 0.00 0.00 0.00 38 1013.9
20201001154018 19 347 12.9 24.1 0.00 0.00 0.00 38 1013.8
20201001153515 20 341 9.7 24.1 0.00 0.00 0.00 38 1013.6
20201001153018 20 342 9.7 24.1 0.00 0.00 0.00 37 1013.5
20201001152510 19 309 9.7 19.3 0.00 0.00 0.00 36 1013.4
20201001152218 19 311 4.8 19.3 0.00 0.00 0.00 36 1013.6
20201001151943 19 300 9.7 24.1 0.00 0.00 0.00 38 1013.7
20201001151528 19 315 11.3 24.1 0.00 0.00 0.00 38 1013.9
20201001150646 19 325 14.5 22.5 0.00 0.00 0.00 39 1013.7
20201001150012 19 315 14.5 22.5 0.00 0.00 0.00 39 1013.7
20201001145505 19 319 16.1 22.5 0.00 0.00 0.00 40 1013.9
20201001145007 20 307 16.1 27.4 0.00 0.00 0.00 40 1014.1
20201001144511 20 334 14.5 27.4 0.00 0.00 0.00 39 1014.1
20201001144008 20 326 14.5 29.0 0.00 0.00 0.00 38 1014.1
20201001143508 20 304 16.1 29.0 0.00 0.00 0.00 39 1014.1
20201001143011 20 319 14.5 32.2 0.00 0.00 0.00 40 1014.1
20201001142515 20 308 19.3 33.8 0.00 0.00 0.00 41 1014.2
20201001142021 20 308 16.1 33.8 0.00 0.00 0.00 40 1014.2
20201001141515 20 354 16.1 27.4 0.00 0.00 0.00 38 1014.3
20201001141008 20 343 12.9 27.4 0.00 0.00 0.00 36 1014.3
20201001140507 20 336 12.9 25.7 0.00 0.00 0.00 35 1014.4
20201001140021 20 0 8.0 20.9 0.00 0.00 0.00 33 1014.5
20201001135507 20 341 8.0 20.9 0.00 0.00 0.00 33 1014.5
20201001135007 20 350 11.3 27.4 0.00 0.00 0.00 34 1014.6
20201001134508 20 346 11.3 27.4 0.00 0.00 0.00 34 1014.5
20201001134009 20 342 11.3 24.1 0.00 0.00 0.00 34 1014.6
20201001133508 20 31 14.5 24.1 0.00 0.00 0.00 36 1014.6
20201001133014 20 337 11.3 22.5 0.00 0.00 0.00 32 1014.6
20201001132510 20 332 11.3 25.7 0.00 0.00 0.00 35 1014.6
20201001132009 20 7 11.3 25.7 0.00 0.00 0.00 36 1014.8
20201001131517 19 8 11.3 24.1 0.00 0.00 0.00 38 1014.8
20201001131011 20 354 14.5 24.1 0.00 0.00 0.00 38 1014.7
20201001130509 20 352 14.5 25.7 0.00 0.00 0.00 40 1014.8
20201001130023 20 341 12.9 25.7 0.00 0.00 0.00 39 1014.9
20201001125511 20 344 16.1 29.0 0.00 0.00 0.00 36 1015.0
20201001125024 20 357 9.7 29.0 0.00 0.00 0.00 36 1015.0
20201001124523 20 351 14.5 27.4 0.00 0.00 0.00 34 1015.0
20201001124008 20 4 12.9 27.4 0.00 0.00 0.00 34 1015.0
20201001123507 20 346 17.7 27.4 0.00 0.00 0.00 29 1015.0
20201001123012 20 352 11.3 32.2 0.00 0.00 0.00 26 1015.1
20201001122506 20 344 19.3 32.2 0.00 0.00 0.00 30 1015.1
20201001122006 20 341 20.9 32.2 0.00 0.00 0.00 32 1015.1
20201001121508 20 8 12.9 22.5 0.00 0.00 0.00 27 1015.2
20201001121015 20 3 12.9 29.0 0.00 0.00 0.00 27 1015.3
20201001120507 20 0 9.7 29.0 0.00 0.00 0.00 27 1015.2
20201001120021 20 352 19.3 29.0 0.00 0.00 0.00 34 1015.4
20201001115507 20 335 16.1 27.4 0.00 0.00 0.00 29 1015.3
20201001115012 20 326 14.5 27.4 0.00 0.00 0.00 32 1015.3
20201001114516 20 27 14.5 27.4 0.00 0.00 0.00 30 1015.4
20201001114006 20 338 11.3 33.8 0.00 0.00 0.00 25 1015.3
20201001113507 20 354 19.3 33.8 0.00 0.00 0.00 23 1015.3
20201001113021 20 325 16.1 32.2 0.00 0.00 0.00 24 1015.2
20201001112514 20 28 11.3 25.7 0.00 0.00 0.00 22 1015.3
20201001112006 20 325 17.7 25.7 0.00 0.00 0.00 18 1015.2
20201001111510 20 318 14.5 32.2 0.00 0.00 0.00 20 1015.2
20201001111010 20 325 20.9 32.2 0.00 0.00 0.00 21 1015.2
20201001110511 20 329 19.3 29.0 0.00 0.00 0.00 19 1015.2
20201001110016 20 335 17.7 25.7 0.00 0.00 0.00 16 1015.2
20201001105508 20 355 9.7 19.3 0.00 0.00 0.00 12 1015.2
20201001105009 19 339 8.0 20.9 0.00 0.00 0.00 12 1015.2
20201001104515 19 344 9.7 24.1 0.00 0.00 0.00 13 1015.2
20201001104012 20 350 14.5 24.1 0.00 0.00 0.00 18 1015.3
20201001103507 20 0 9.7 24.1 0.00 0.00 0.00 17 1015.4
20201001103008 20 329 12.9 24.1 0.00 0.00 0.00 21 1015.3
20201001102511 19 333 11.3 20.9 0.00 0.00 0.00 10 1015.3
20201001102006 19 341 3.2 14.5 0.00 0.00 0.00 3 1015.3
20201001101507 18 13 6.4 16.1 0.00 0.00 0.00 3 1015.2
20201001101007 18 36 8.0 16.1 0.00 0.00 0.00 3 1015.2
20201001100506 18 16 8.0 14.5 0.00 0.00 0.00 3 1015.3
20201001100019 18 3 4.8 16.1 0.00 0.00 0.00 3 1015.3
20201001095511 18 36 8.0 20.9 0.00 0.00 0.00 3 1015.3
20201001095007 18 13 9.7 20.9 0.00 0.00 0.00 3 1015.4
20201001094512 17 2 11.3 19.3 0.00 0.00 0.00 3 1015.5
20201001094013 17 24 8.0 19.3 0.00 0.00 0.00 3 1015.5
20201001093509 17 30 3.2 14.5 0.00 0.00 0.00 3 1015.5
20201001093008 17 323 8.0 14.5 0.00 0.00 0.00 3 1015.5
20201001092506 17 323 4.8 14.5 0.00 0.00 0.00 3 1015.4
20201001092011 17 8 4.8 12.9 0.00 0.00 0.00 3 1015.4
20201001091514 17 30 3.2 12.9 0.00 0.00 0.00 3 1015.4
20201001091008 17 17 8.0 12.9 0.00 0.00 0.00 3 1015.3
20201001090507 17 335 8.0 12.9 0.00 0.00 0.00 3 1015.4
20201001090022 17 14 8.0 12.9 0.00 0.00 0.00 3 1015.4
20201001085507 17 0 3.2 12.9 0.00 0.00 0.00 3 1015.5
20201001085016 17 337 4.8 12.9 0.00 0.00 0.00 3 1015.4
20201001084515 17 7 8.0 12.9 0.00 0.00 0.00 3 1015.4
20201001084006 17 7 3.2 12.9 0.00 0.00 0.00 3 1015.4
20201001083511 17 6 9.7 12.9 0.00 0.00 0.00 3 1015.4
20201001083018 17 347 6.4 11.3 0.00 0.00 0.00 3 1015.3
20201001082506 17 350 4.8 9.7 0.00 0.00 0.00 3 1015.3
20201001082006 17 331 4.8 9.7 0.00 0.00 0.00 3 1015.3
20201001081515 17 325 4.8 14.5 0.00 0.00 0.00 3 1015.1
20201001081006 17 301 3.2 14.5 0.00 0.00 0.00 3 1015.1
20201001080508 17 320 8.0 12.9 0.00 0.00 0.00 3 1015.1
20201001080013 17 334 8.0 14.5 0.00 0.00 0.00 3 1015.2
20201001075507 17 335 8.0 16.1 0.00 0.00 0.00 3 1015.1
20201001075011 16 329 9.7 16.1 0.00 0.00 0.00 3 1015.0
20201001074513 16 307 8.0 16.1 0.00 0.00 0.00 3 1015.0
20201001074010 16 358 8.0 16.1 0.00 0.00 0.00 3 1014.9
20201001073509 16 348 9.7 19.3 0.00 0.00 0.00 3 1014.9
20201001073010 16 326 8.0 19.3 0.00 0.00 0.00 3 1015.0
20201001072506 16 352 11.3 19.3 0.00 0.00 0.00 3 1015.0
20201001072006 16 328 9.7 16.1 0.00 0.00 0.00 3 1014.9
20201001071514 16 321 11.3 19.3 0.00 0.00 0.00 3 1014.9
20201001071007 16 319 12.9 19.3 0.00 0.00 0.00 3 1014.8
20201001070510 16 322 9.7 19.3 0.00 0.00 0.00 3 1014.6
20201001070021 16 298 8.0 19.3 0.00 0.00 0.00 3 1014.4
20201001065510 16 298 11.3 19.3 0.00 0.00 0.00 3 1014.4
20201001065006 16 303 12.9 16.1 0.00 0.00 0.00 3 1014.4
20201001064515 16 299 12.9 19.3 0.00 0.00 0.00 3 1014.4
20201001064008 16 298 14.5 19.3 0.00 0.00 0.00 3 1014.4
20201001063516 16 305 9.7 19.3 0.00 0.00 0.00 3 1014.5
20201001063018 16 304 12.9 19.3 0.00 0.00 0.00 3 1014.5
20201001062509 16 290 12.9 19.3 0.00 0.00 0.00 3 1014.4
20201001062008 16 311 12.9 20.9 0.00 0.00 0.00 3 1014.6
20201001061508 16 314 9.7 27.4 0.00 0.00 0.00 3 1014.6
20201001061006 16 305 14.5 32.2 0.00 0.00 0.00 3 1014.7
20201001060509 16 317 16.1 32.2 0.00 0.00 0.00 3 1014.8
20201001060018 16 324 16.1 25.7 0.00 0.00 0.00 3 1014.7
20201001055512 16 333 16.1 25.7 0.00 0.00 0.00 3 1014.5
20201001055010 17 330 11.3 20.9 0.00 0.00 0.00 3 1014.4
20201001054523 16 309 8.0 19.3 0.00 0.00 0.00 3 1014.4
20201001054010 16 290 11.3 19.3 0.00 0.00 0.00 3 1014.3
20201001053512 16 279 11.3 14.5 0.00 0.00 0.00 3 1014.4
20201001053016 16 289 11.3 14.5 0.00 0.00 0.00 3 1014.5
20201001052513 16 290 9.7 12.9 0.00 0.00 0.00 3 1014.6
20201001052011 16 318 6.4 12.9 0.00 0.00 0.00 3 1014.5
20201001051515 17 296 4.8 11.3 0.00 0.00 0.00 3 1014.5
20200930174509 16 333 24.1 38.6 0.00 0.00 0.00 10 1015.9
20200930174016 17 342 29.0 38.6 0.00 0.00 0.00 11 1015.9
20200930173512 17 356 14.5 32.2 0.00 0.00 0.00 11 1015.9
20200930173016 17 347 20.9 37.0 0.00 0.00 0.00 11 1015.8
20200930172508 17 338 20.9 37.0 0.00 0.00 0.00 11 1015.8
20200930172009 17 349 25.7 37.0 0.00 0.00 0.00 12 1015.8